CAPE
3327 2934 2724 2287 1671 1326 824 733 1135 1878 1668 1439 1748 1671 1475 690 871 1038 1037 1285 1492 1056
3128 3126 2935 2790 2683 1938 1722 1284 1701 1552 1565 1567 1450 1471 1347 876 246 875 879 1236 1484 1189
2544 2926 2920 3010 2699 2300 2015 1881 2038 1847 1541 1557 1329 1352 1200 1008 949 785 959 1025 1432 1344
1357 1851 2370 2658 3078 2591 2273 2345 1951 2393 1996 1543 1154 1009 914 923 725 913 1029 1135 568 644
2682 2725 2523 2546 2651 1594 333 1396 2104 2449 2129 1691 942 971 838 564 965 933 959 1044 1048 1290
2618 2558 2864 2861 2668 881 913 932 1962 2196 2049 1051 695 365 703 902 930 1088 696 1018 1139 715
2367 2643 2601 2406 2584 2697 1252 1149 1400 1612 1955 849 990 1170 1139 992 1100 923 673 1085 928 926
2211 2332 2147 2306 2307 2367 1497 861 1360 1246 1476 1281 1200 877 1012 568 724 814 875 1037 763 1287
1203 1153 1031 1570 2596 1546 2 0 0 627 1379 1845 1183 534 715 840 865 1146 863 256 115 597
651 807 814 815 1090 2267 1126 171 302 1466 1511 383 1775 682 297 455 1196 1050 1188 324 54 17
180 187 357 586 780 828 1591 1828 2105 1998 2227 2148 2205 1719 498 237 797 1244 1099 749 760 358
189 229 200 215 499 740 787 843 1202 1554 2207 2291 2515 1977 506 412 690 812 999 1214 1274 862
218 186 215 277 338 407 825 762 489 718 1269 1341 2119 2368 1425 456 995 818 944 1238 1027 461
370 348 338 381 541 351 431 679 789 403 616 946 1136 1708 1596 731 725 689 885 775 973 1316
CIN
-1 -1 -2 -3 -4 -2 -4 -2 -5 -8 -1 -3 -1 -1 -1 -19 -11 -5 -2 0 -9 -12
0 -1 -5 -2 -4 -3 -14 -13 -1 -1 -8 -1 -1 -1 -1 -6 -46 -12 -9 -1 -2 -16
-15 -1 -2 -2 -4 -8 -1 -1 -1 -16 -1 -1 -3 -1 -2 -2 -1 -8 -11 -4 -2 -9
-58 -28 -13 -6 -1 -8 -1 -2 -2 0 0 0 -1 0 -2 -1 -3 -2 -4 -4 -40 -42
-12 -5 -5 -12 -9 -52 -156 -48 -4 -1 0 -1 -1 0 -1 -4 -1 -1 -2 -2 -6 -3
-2 -10 -4 -2 -6 -121 -94 -84 -6 0 -2 -26 -36 -80 -15 -1 -1 0 -12 -6 -5 -18
-1 -2 -2 -4 -2 -1 -80 -56 -13 -16 -1 -48 -29 -2 -3 -1 -1 -10 -17 -1 -9 -11
0 -1 -9 -7 -13 -3 -11 -74 -69 -21 -1 -22 -30 -58 -53 -62 -33 -22 -9 -1 -14 -1
-37 -46 -29 -5 0 -42 -167 0 0 -112 -13 -1 -21 -93 -94 -74 -62 -20 -28 -49 -62 -32
-86 -66 -34 -44 -30 -2 -67 -92 -221 -47 -14 -130 -1 -82 -148 -106 -20 -25 -6 -52 -87 -108
-143 -141 -102 -38 -37 -27 -4 -6 -5 -9 -5 -2 -3 -26 -117 -132 -26 -2 -14 -9 -15 -59
-133 -137 -145 -124 -60 -46 -43 -46 -29 -28 -8 -4 -1 -28 -30 -88 -31 -2 -2 -3 -6 -19
-132 -119 -139 -128 -95 -85 -50 -63 -70 -52 -37 -45 -10 -3 -39 -63 -13 -2 -1 -1 -30 -64
-95 -85 -74 -80 -74 -97 -80 -61 -53 -90 -67 -59 -57 -34 -54 -81 -44 -24 -3 -2 -4 -2
Wind_Speed
3 5 3 4 4 4 5 6 9 4 3 3 4 6 6 20 25 28 15 17 17 29
1 1 6 12 4 2 5 10 13 9 10 7 8 6 7 13 14 22 19 9 6 13
3 4 3 2 5 2 5 12 15 11 13 9 12 10 11 11 16 22 20 15 11 13
2 1 2 3 2 9 8 10 7 11 13 11 10 11 10 12 14 20 17 15 10 18
4 5 6 4 3 12 18 5 2 7 10 10 6 9 11 9 11 17 16 17 12 7
16 13 8 7 11 14 20 11 5 4 5 7 6 6 5 10 13 16 20 20 22 14
18 19 20 20 17 16 16 25 23 7 7 7 8 7 8 13 24 21 24 14 19 18
20 20 22 25 25 23 24 28 33 35 4 10 8 11 5 5 11 26 26 20 22 21
22 22 23 24 25 20 25 31 35 39 10 6 6 6 6 9 12 16 18 19 25 30
24 25 24 25 25 20 18 17 11 35 38 23 7 4 8 7 24 23 19 16 19 18
27 28 28 28 29 27 21 19 20 31 29 28 8 15 10 11 9 21 18 15 13 10
30 31 30 30 31 31 30 30 28 29 31 32 38 39 8 7 9 11 20 16 18 19
35 34 35 35 34 35 35 35 35 34 31 33 37 39 22 13 9 9 14 11 14 25
38 38 37 38 37 37 39 39 38 40 38 38 36 37 30 16 20 34 28 21 12 13
Wind_Direction
99 18 37 54 89 106 53 14 352 11 358 314 296 290 279 281 269 260 290 285 279 243
74 115 345 329 17 28 351 337 335 338 329 319 302 280 278 282 277 275 281 287 272 242
15 312 177 185 339 2 359 327 320 327 320 317 308 289 282 276 276 272 274 278 273 276
356 34 188 201 272 326 338 331 306 322 323 319 311 296 280 271 269 267 270 268 259 265
309 318 314 294 286 324 325 1 245 341 335 334 329 319 298 267 263 268 263 259 262 260
317 320 315 309 314 309 316 333 331 349 357 360 349 345 309 280 271 266 260 259 262 272
326 319 313 313 319 319 313 300 304 319 335 344 347 330 298 283 265 261 254 265 269 273
322 321 313 309 308 309 309 298 282 249 332 315 324 337 288 267 273 256 259 267 270 268
320 320 320 316 313 312 314 301 284 269 216 201 298 299 309 281 273 272 270 270 264 258
310 309 312 312 312 322 320 322 313 246 245 220 292 184 190 264 270 269 273 268 266 273
303 301 301 304 300 306 317 319 311 286 296 295 220 206 198 195 212 275 277 268 261 238
298 296 297 297 296 296 299 299 301 297 293 287 254 249 260 224 204 217 274 276 266 269
292 291 289 290 290 290 290 291 290 289 290 290 278 274 293 288 269 260 277 261 269 267
288 287 287 286 285 285 284 284 285 283 284 283 285 282 288 282 277 274 271 279 267 273